This demonstration page uses our WeatherBlox Daily Observations layout. Learn more.

Left ArrowRight Arrow

Hourly Observations for April 12, 2015

Temp ( °F °C ) Dew Point ( °F °C ) Humidity (%) Winds ( mph kmh ) Pressure ( in mb ) Visibility ( mi km ) Precip ( " mm )
12:53 am 00:53 Clear 55 12.8 43 6.1 64 64 S 10 17 29.82 1010 10 16 0.00 0.00
1:53 am 01:53 Clear 54 12.2 43 6.1 67 67 S 12 19 29.80 1009 10 16 0.00 0.00
2:53 am 02:53 Clear 52 11.1 43 6.1 72 72 SSE 12 19 29.78 1009 10 16 0.00 0.00
3:53 am 03:53 Clear 50 10 42 5.6 74 74 S 12 19 29.77 1008 10 16 0.00 0.00
4:53 am 04:53 Clear 49 9.4 42 5.6 77 77 S 10 17 29.75 1007 10 16 0.00 0.00
5:53 am 05:53 Clear 49 9.4 42 5.6 77 77 SSE 9 15 29.75 1008 10 16 0.00 0.00
6:53 am 06:53 Clear 49 9.4 42 5.6 77 77 S 8 13 29.74 1007 10 16 0.00 0.00
7:53 am 07:53 Sunny 49 9.4 43 6.1 80 80 S 7 11 29.75 1008 10 16 0.00 0.00
8:53 am 08:53 Cloudy 52 11.1 44 6.7 75 75 SSE 12 19 29.76 1008 10 16 0.00 0.00
9:53 am 09:53 Partly Cloudy 57 13.9 47 8.3 69 69 S 12 19 29.74 1007 10 16 0.00 0.00
10:53 am 10:53 Partly Cloudy 66 18.9 48 8.9 52 52 S 15 24 29.73 1007 10 16 0.00 0.00
11:53 am 11:53 Sunny 70 21.1 50 10 49 49 S 13 20 29.71 1006 10 16 0.00 0.00
12:53 pm 12:53 Sunny 72 22.2 52 11.1 50 50 S 16 26 29.69 1005 10 16 0.00 0.00
1:53 pm 13:53 Mostly Cloudy 72 22.2 52 11.1 50 50 S 12 19 29.68 1005 10 16 0.00 0.00
2:53 pm 14:53 Mostly Cloudy 74 23.3 52 11.1 46 46 SSW 13 20 29.67 1005 10 16 0.00 0.00
3:53 pm 15:53 Partly Cloudy 75 23.9 52 11.1 45 45 SSW 10 17 29.65 1004 10 16 0.00 0.00
4:53 pm 16:53 Mostly Cloudy 75 23.9 52 11.1 45 45 WSW 10 17 29.67 1005 10 16 0.00 0.00
5:53 pm 17:53 Mostly Cloudy 76 24.4 51 10.6 42 42 WSW 10 17 29.68 1005 10 16 0.00 0.00
6:53 pm 18:53 Partly Cloudy 71 21.7 45 7.2 39 39 N 24 39 29.73 1007 10 16 0.00 0.00
7:09 pm 19:09 Mostly Cloudy 68 20 40 4.4 36 36 N 26 43 29.71 1006 10 16 0.00 0.00
7:23 pm 19:23 Mostly Cloudy with Nearby Thunderstorms 66 18.9 38 3.3 36 36 N 23 37 29.74 1007 10 16 0.00 0.00
7:38 pm 19:38 Mostly Sunny 64 18 37 3 37 37 N 23 37 29.74 1007 10 16 0.00 0.00
7:53 pm 19:53 Sunny 63 17.2 38 3.3 40 40 N 23 37 29.78 1009 10 16 0.00 0.00
8:53 pm 20:53 Mostly Cloudy 62 16.7 39 3.9 43 43 NNW 17 28 29.86 1011 10 16 0.00 0.00
9:53 pm 21:53 Mostly Clear 58 14.4 33 0.6 39 39 N 22 35 29.90 1013 10 16 0.00 0.00
10:53 pm 22:53 Clear 54 12.2 31 -0.6 42 42 N 18 30 29.94 1014 10 16 0.00 0.00
11:53 pm 23:53 Clear 51 10.6 31 -0.6 46 46 NNE 9 15 30.01 1016 10 16 0.00 0.00

Powered by AerisWeather